Home > Weather > Washington DC > Past weeks

Flag for USA Weather for the Past 2 Weeks in Washington DC, District of Columbia, USA

Now
55 °F

Low clouds.


Feels Like: 53 °F
Forecast: 53 / 60 °F
Wind: 7 mph from Northeast

Location: Reagan National Airport

Current Time: May 4, 2016 at 6:40:18 AM

Latest Report: May 4, 2016 at 5:52 AM


Visibility: 10 mi

Pressure: 29.73 "Hg

Humidity: 93%

Dew Point: 53 °F

Location of Washington DCLocation

Historic Weather in Washington DC — Graph

°F

Washington DC Temperature Yesterday

Maximum temperature yesterday: 72 °F (at 1:52 PM)
Minimum temperature yesterday: 59 °F (at 11:52 PM)
Average temperature yesterday: 65 °F

High & Low Weather Summary for the Past Weeks

 TemperatureHumidityPressure
High85 °F (Apr 26, 2:52 PM)100% (May 3, 6:52 AM)30.33 "Hg (May 3, 6:52 AM)
Low47 °F (Apr 24, 5:52 AM)18% (Apr 20, 4:52 PM)29.68 "Hg (Apr 26, 5:52 PM)
Average61 °F69%29.99 "Hg
* Reported Apr 19 4:52 AM — May 4 4:52 AM, Washington DC, Weather by CustomWeather, © 2016

Note: Actual official high and low records may vary slightly from our data, if they occured in-between our weather recording intervals... More about our weather records

Advertising

Washington DC Weather History for the Previous 24 Hours

Scroll right to see more
 ConditionsComfort  
Time TempWeatherWind HumidityBarometerVisibility
4:52 AM
Wed, May 4
56 °FLow clouds.9 mph90%29.74 "Hg10 mi
3:52 AM56 °FOvercast.8 mph93%29.75 "Hg10 mi
2:52 AM56 °FPassing clouds.8 mph93%29.74 "Hg10 mi
1:52 AM57 °FPassing clouds.9 mph93%29.76 "Hg8 mi
12:52 AM58 °FLight rain. Fog.8 mph87%29.78 "Hg6 mi
11:52 PM
Tue, May 3
59 °FLight rain. Overcast.9 mph87%29.78 "Hg9 mi
10:52 PM60 °FOvercast.12 mph80%29.79 "Hg10 mi
9:52 PM60 °FMostly cloudy.9 mph83%29.77 "Hg10 mi
8:55 PM61 °FOvercast.12 mph83%29.78 "Hg10 mi
7:52 PM62 °FPartly sunny.9 mph83%29.77 "Hg10 mi
6:52 PM63 °FBroken clouds.13 mph87%29.74 "Hg10 mi
5:59 PM66 °FLight rain. Broken clouds.7 mph84%29.75 "Hg9 mi
4:52 PM68 °FMostly cloudy.12 mph73%29.75 "Hg10 mi
3:52 PM72 °FBroken clouds.6 mph59%29.74 "Hg10 mi
2:52 PM72 °FBroken clouds.10 mph61%29.76 "Hg10 mi
1:52 PM72 °FBroken clouds.8 mph66%29.77 "Hg10 mi
12:52 PM69 °FMostly cloudy.9 mph73%29.79 "Hg10 mi
11:52 AM69 °FCloudy.7 mph76%29.78 "Hg10 mi
10:52 AM68 °FCloudy.10 mph76%29.79 "Hg10 mi
9:59 AM67 °FCloudy.7 mph79%29.80 "Hg10 mi
8:52 AM65 °FCloudy.9 mph91%29.80 "Hg7 mi
7:52 AM63 °FMostly cloudy.No wind97%29.79 "Hg7 mi
6:52 AM62 °FFog.3 mph100%29.79 "Hg3 mi
Weather by CustomWeather, © 2016

See weather overviewHow to use our weather pages